"startDT [UTC]","vpos","CH4 [ppm]","stdev(CH4) [ppm]","CO2 [ppm]","stdev(CO2) [ppm]","H2O [ppm]","stdev(H2O)","p_LGR [torr]","T_LGR [C]","mt1_LGR [us]","mt2_LGR [us]","T_ECpre [C]","T_EC1 [C]","T_EC2 [C]","p_inlet [hPa]","p_in [hPa]","p_out [hPa]","T_inlet [C]","RH_inlet [%]","dwpt_inlet [C]","T_vent [C]","RH_vent [%]","dwpt_vent [C]","flow_vent [l min-1]","flow_inlet [l min-1]","dwpt_sample [C]","T_room [C]"
2012-07-13 00:00:00,0.0,1.8944,0.0010,385.93,0.31,25.4,26.4,138.09,30.26,24.65,36.49,0.94,15.62,-26.67,-59,534,-927,24.3,25.4,3.2,24.1,1.6,-30.4,5.73,2.37,-27.9,28.5
2012-07-13 00:01:00,0.0,1.8939,0.0009,386.00,0.30,19.7,23.8,138.09,30.26,24.65,36.49,0.94,15.73,-26.67,-59,534,-927,24.3,24.8,2.9,24.1,1.6,-30.4,5.73,2.38,-27.9,28.6
2012-07-13 00:02:00,0.0,1.8933,0.0010,386.54,0.45,22.3,20.9,138.09,30.25,24.65,36.49,0.94,15.83,-26.67,-59,534,-928,24.3,23.4,2.1,24.1,1.6,-30.3,5.73,2.35,-27.9,28.5
2012-07-13 00:03:00,0.0,1.8936,0.0009,386.59,0.34,20.4,21.7,138.09,30.25,24.65,36.49,0.93,15.93,-26.66,-59,534,-927,24.3,23.4,2.1,24.2,1.6,-30.4,5.73,2.35,-27.8,28.6
2012-07-13 00:04:00,0.0,1.8935,0.0008,386.75,0.29,22.0,24.7,138.09,30.26,24.65,36.49,0.94,16.02,-26.66,-59,534,-927,24.3,23.1,1.9,24.2,1.6,-30.5,5.73,2.37,-27.8,28.6
2012-07-13 00:05:00,0.0,1.8932,0.0011,386.71,0.28,25.0,25.5,138.09,30.25,24.66,36.49,0.95,16.11,-26.66,-59,535,-927,24.4,23.0,1.9,24.2,1.5,-30.8,5.73,2.37,-27.8,28.6
2012-07-13 00:06:00,0.0,1.8934,0.0009,386.37,0.34,25.5,23.8,138.09,30.25,24.65,36.49,0.94,16.19,-26.65,-59,535,-927,24.4,24.0,2.5,24.2,1.5,-30.9,5.73,2.35,-27.8,28.6
2012-07-13 00:07:00,0.0,1.8932,0.0009,386.41,0.36,19.3,22.7,138.09,30.25,24.65,36.49,0.94,16.27,-26.65,-59,535,-927,24.4,23.7,2.3,24.2,1.5,-30.9,5.73,2.35,-27.8,28.6
2012-07-13 00:08:00,0.0,1.8933,0.0008,386.52,0.40,25.4,24.6,138.09,30.25,24.65,36.49,0.94,16.35,-26.64,-59,535,-927,24.4,23.2,2.1,24.3,1.5,-30.8,5.73,2.38,-27.8,28.6
2012-07-13 00:09:00,0.0,1.8929,0.0009,386.61,0.26,25.3,24.3,138.09,30.25,24.65,36.50,0.95,16.42,-26.64,-59,535,-927,24.4,22.8,1.8,24.3,1.5,-30.8,5.73,2.37,-27.8,28.6
2012-07-13 00:10:00,0.0,1.8931,0.0010,386.89,0.28,21.9,22.8,138.09,30.25,24.65,36.49,0.95,16.50,-26.64,-59,535,-928,24.4,22.2,1.5,24.3,1.5,-30.8,5.73,2.35,-27.8,28.6
2012-07-13 00:11:00,0.0,1.8932,0.0009,386.76,0.32,22.9,23.0,138.09,30.25,24.65,36.49,0.94,16.56,-26.63,-59,535,-927,24.5,23.1,2.0,24.3,1.5,-30.8,5.73,2.36,-27.8,28.6
2012-07-13 00:12:00,0.0,1.8925,0.0008,386.74,0.27,32.8,29.3,138.09,30.25,24.65,36.49,0.95,16.63,-26.63,-59,535,-927,24.5,22.7,1.8,24.3,1.5,-30.8,5.73,2.37,-27.8,28.6
2012-07-13 00:13:00,0.0,1.8928,0.0008,386.86,0.27,21.2,24.4,138.09,30.25,24.65,36.49,0.94,16.70,-26.63,-59,535,-928,24.5,22.5,1.7,24.4,1.5,-30.8,5.73,2.36,-27.8,28.6
2012-07-13 00:14:00,0.0,1.8930,0.0008,386.66,0.25,28.8,28.0,138.09,30.25,24.65,36.49,0.94,16.76,-26.62,-59,535,-927,24.5,22.6,1.7,24.4,1.5,-30.8,5.73,2.35,-27.8,28.6
2012-07-13 00:15:00,0.0,1.8928,0.0010,386.64,0.34,23.8,23.5,138.09,30.25,24.65,36.49,0.94,16.81,-26.62,-59,535,-928,24.5,22.9,2.0,24.4,1.5,-30.8,5.73,2.36,-27.8,28.6
2012-07-13 00:16:00,0.0,1.8932,0.0009,386.45,0.27,24.1,24.1,138.09,30.24,24.65,36.49,0.94,16.87,-26.62,-59,535,-927,24.5,23.2,2.1,24.4,1.5,-30.8,5.73,2.38,-27.8,28.6
2012-07-13 00:17:00,0.0,1.8928,0.0007,386.60,0.29,23.4,21.0,138.09,30.24,24.65,36.49,0.91,16.92,-26.62,-59,535,-927,24.5,22.6,1.8,24.4,1.5,-30.9,5.73,2.36,-27.8,28.6
2012-07-13 00:18:00,0.0,1.8924,0.0009,386.85,0.28,21.7,23.5,138.09,30.24,24.65,36.49,0.94,16.97,-26.62,-59,535,-928,24.5,22.1,1.5,24.4,1.5,-31.0,5.73,2.34,-27.8,28.6
2012-07-13 00:19:00,0.0,1.8928,0.0010,386.78,0.32,27.1,21.8,138.09,30.24,24.65,36.49,0.93,17.02,-26.61,-59,535,-927,24.6,22.6,1.8,24.4,1.5,-30.9,5.73,2.37,-27.8,28.6
2012-07-13 00:20:00,0.0,1.8929,0.0008,386.79,0.31,26.7,23.4,138.09,30.24,24.65,36.49,0.92,17.07,-26.61,-60,535,-927,24.6,22.2,1.6,24.4,1.5,-30.9,5.73,2.38,-27.8,28.6
2012-07-13 00:21:00,0.0,1.8931,0.0009,386.67,0.36,21.9,20.8,138.09,30.24,24.65,36.49,0.92,17.11,-26.61,-60,535,-928,24.6,23.0,2.1,24.5,1.5,-30.9,5.73,2.35,-27.8,28.6
2012-07-13 00:22:00,0.0,1.8931,0.0008,386.61,0.30,27.4,29.5,138.09,30.24,24.65,36.49,0.91,17.16,-26.61,-60,535,-927,24.6,22.7,1.9,24.5,1.5,-30.9,5.73,2.35,-27.8,28.6
2012-07-13 00:23:00,0.0,1.8936,0.0008,386.65,0.29,32.4,24.7,138.09,30.23,24.65,36.49,0.91,17.20,-26.60,-59,535,-927,24.6,22.8,2.0,24.5,1.5,-31.0,5.73,2.37,-27.8,28.6
2012-07-13 00:24:00,0.0,1.8933,0.0009,386.46,0.31,21.2,24.3,138.09,30.23,24.65,36.50,0.93,17.24,-26.60,-59,535,-928,24.6,22.9,2.0,24.5,1.5,-30.9,5.73,2.37,-27.8,28.6
2012-07-13 00:25:00,0.0,1.8930,0.0009,386.62,0.29,23.3,24.9,138.09,30.23,24.65,36.49,0.92,17.28,-26.59,-60,535,-928,24.6,22.9,2.0,24.5,1.5,-30.9,5.73,2.35,-27.8,28.6
2012-07-13 00:26:00,0.0,1.8928,0.0009,386.79,0.40,23.8,23.6,138.09,30.23,24.65,36.49,0.93,17.31,-26.59,-60,535,-927,24.6,21.7,1.3,24.5,1.5,-30.9,5.73,2.35,-27.8,28.7
2012-07-13 00:27:00,0.0,1.8930,0.0008,386.89,0.28,27.5,27.2,138.09,30.23,24.65,36.50,0.93,17.35,-26.59,-60,535,-928,24.6,22.3,1.7,24.5,1.5,-30.9,5.73,2.38,-27.8,28.7
2012-07-13 00:28:00,0.0,1.8935,0.0009,386.47,0.30,19.7,20.8,138.09,30.23,24.65,36.49,0.93,17.38,-26.59,-60,535,-928,24.7,23.2,2.3,24.5,1.5,-30.9,5.73,2.37,-27.8,28.6
2012-07-13 00:29:00,0.0,1.8929,0.0009,386.63,0.32,28.6,27.2,138.09,30.23,24.65,36.49,0.94,17.41,-26.59,-60,535,-927,24.6,22.5,1.8,24.5,1.5,-30.9,5.73,2.35,-27.8,28.7
2012-07-13 00:30:00,0.0,1.8936,0.0008,386.32,0.29,23.2,24.5,138.09,30.23,24.65,36.49,0.94,17.44,-26.59,-60,535,-928,24.6,23.5,2.4,24.5,1.5,-30.8,5.73,2.36,-27.8,28.6
2012-07-13 00:31:00,0.0,1.8930,0.0011,386.54,0.29,25.8,26.8,138.09,30.22,24.65,36.49,0.94,17.47,-26.59,-60,535,-928,24.7,22.8,2.0,24.5,1.5,-30.8,5.73,2.38,-27.8,28.7
2012-07-13 00:32:00,0.0,1.8929,0.0010,386.66,0.27,27.8,26.0,138.09,30.22,24.65,36.49,0.94,17.50,-26.59,-60,535,-927,24.6,22.8,2.0,24.5,1.5,-30.8,5.73,2.36,-27.8,28.6
2012-07-13 00:33:00,0.0,1.8931,0.0009,386.67,0.28,19.4,23.9,138.09,30.22,24.65,36.49,0.93,17.52,-26.59,-60,535,-928,24.7,22.6,1.9,24.5,1.5,-30.9,5.73,2.35,-27.8,28.7
2012-07-13 00:34:00,0.0,1.8932,0.0008,386.75,0.27,25.1,23.2,138.09,30.22,24.65,36.49,0.94,17.55,-26.58,-60,535,-928,24.7,22.7,2.0,24.6,1.5,-30.8,5.73,2.36,-27.8,28.7
2012-07-13 00:35:00,0.0,1.8930,0.0010,386.65,0.29,26.4,22.7,138.09,30.22,24.65,36.49,0.94,17.58,-26.58,-60,535,-927,24.7,22.3,1.7,24.6,1.5,-30.8,5.73,2.38,-27.8,28.7
2012-07-13 00:36:00,0.0,1.8931,0.0009,386.68,0.54,22.2,23.9,138.09,30.22,24.65,36.49,0.94,17.59,-26.58,-60,535,-928,24.7,23.0,2.1,24.6,1.5,-30.8,5.73,2.36,-27.8,28.7
2012-07-13 00:37:00,0.0,1.8926,0.0009,386.59,0.31,21.6,25.8,138.09,30.22,24.65,36.49,0.95,17.62,-26.58,-60,536,-928,24.7,22.1,1.6,24.6,1.5,-30.8,5.73,2.34,-27.8,28.7
2012-07-13 00:38:00,0.0,1.8925,0.0009,387.17,0.32,26.8,27.3,138.09,30.22,24.65,36.49,0.95,17.64,-26.58,-60,536,-927,24.7,21.2,1.0,24.6,1.5,-30.8,5.73,2.37,-27.8,28.7
2012-07-13 00:39:00,0.0,1.8926,0.0008,386.72,0.29,22.2,21.4,138.09,30.22,24.65,36.49,0.95,17.66,-26.58,-60,535,-928,24.7,22.6,1.9,24.6,1.5,-30.8,5.73,2.38,-27.8,28.7
2012-07-13 00:40:00,0.0,1.8930,0.0008,386.37,0.28,28.1,23.5,138.09,30.22,24.65,36.49,0.95,17.68,-26.58,-60,536,-928,24.7,23.3,2.4,24.6,1.5,-30.8,5.73,2.35,-27.8,28.6
2012-07-13 00:41:00,0.0,1.8929,0.0009,386.68,0.29,24.8,22.9,138.09,30.22,24.65,36.48,0.95,17.70,-26.58,-60,536,-927,24.7,23.2,2.3,24.6,1.5,-30.8,5.73,2.35,-27.9,28.7
2012-07-13 00:42:00,0.0,1.8930,0.0008,386.64,0.32,21.6,26.1,138.09,30.22,24.65,36.49,0.95,17.72,-26.57,-60,536,-928,24.7,22.3,1.7,24.6,1.5,-30.8,5.73,2.38,-27.9,28.7
2012-07-13 00:43:00,0.0,1.8929,0.0009,386.76,0.26,19.3,22.5,138.09,30.22,24.65,36.49,0.95,17.73,-26.58,-60,536,-928,24.7,22.4,1.8,24.6,1.5,-30.8,5.73,2.37,-27.9,28.6
2012-07-13 00:44:00,0.0,1.8926,0.0010,386.66,0.29,23.2,24.4,138.09,30.22,24.65,36.50,0.94,17.75,-26.57,-60,536,-927,24.7,22.6,2.0,24.6,1.5,-30.8,5.73,2.34,-27.9,28.6
2012-07-13 00:45:00,0.0,1.8935,0.0010,386.56,0.34,19.9,22.7,138.09,30.22,24.65,36.49,0.94,17.77,-26.57,-60,536,-928,24.7,22.6,1.9,24.6,1.5,-30.7,5.73,2.35,-27.9,28.7
2012-07-13 00:46:00,0.0,1.8930,0.0008,386.79,0.31,18.3,21.6,138.09,30.22,24.65,36.49,0.94,17.78,-26.57,-60,535,-928,24.7,22.3,1.8,24.6,1.5,-30.8,5.73,2.38,-28.0,28.7
2012-07-13 00:47:00,0.0,1.8935,0.0008,386.47,0.36,16.7,19.4,138.09,30.22,24.65,36.49,0.94,17.80,-26.57,-60,536,-928,24.7,23.3,2.4,24.6,1.5,-30.9,5.73,2.36,-28.0,28.7
2012-07-13 00:48:00,0.0,1.8938,0.0008,386.37,0.32,18.1,19.2,138.09,30.22,24.65,36.49,0.93,17.81,-26.57,-59,535,-928,24.7,23.2,2.3,24.6,1.5,-30.9,5.73,2.34,-28.0,28.7
2012-07-13 00:49:00,0.0,1.8932,0.0010,386.61,0.36,14.5,19.9,138.09,30.22,24.65,36.49,0.93,17.81,-26.57,-60,535,-928,24.7,22.5,1.8,24.5,1.5,-30.9,5.73,2.37,-28.1,28.7
2012-07-13 00:50:00,0.0,1.8929,0.0009,386.72,0.33,21.7,24.0,138.09,30.22,24.65,36.49,0.98,17.72,-26.57,-60,535,-927,24.7,22.6,1.9,24.5,1.5,-30.9,5.73,2.38,-28.0,28.7
2012-07-13 00:51:00,0.0,1.8930,0.0009,386.51,0.33,20.1,24.6,138.09,30.22,24.65,36.49,1.04,16.34,-26.58,-60,535,-928,24.7,23.3,2.3,24.5,1.5,-30.9,5.73,2.36,-28.1,28.7
2012-07-13 00:52:00,0.0,1.8930,0.0008,386.31,0.26,20.1,22.4,138.09,30.22,24.65,36.49,1.10,14.12,-26.58,-60,535,-928,24.7,23.9,2.7,24.5,1.5,-30.9,5.73,2.35,-28.0,28.8
2012-07-13 00:53:00,0.0,1.8945,0.0011,385.94,0.38,13.5,18.1,138.09,30.22,24.64,36.49,1.00,11.78,-26.58,-60,535,-928,24.7,25.0,3.3,24.5,1.5,-30.9,5.73,2.37,-28.1,28.8
2012-07-13 00:54:00,0.0,1.8943,0.0009,385.79,0.31,16.9,24.1,138.09,30.22,24.65,36.49,0.97,9.46,-26.57,-60,535,-928,24.7,24.6,3.1,24.5,1.5,-30.8,5.73,2.38,-28.0,28.8
2012-07-13 00:55:00,0.0,1.8932,0.0008,386.60,0.33,16.4,19.8,138.09,30.22,24.65,36.49,1.05,7.23,-26.56,-60,535,-928,24.7,22.8,2.0,24.5,1.5,-30.8,5.73,2.36,-28.0,28.7
2012-07-13 00:56:00,0.0,1.8930,0.0009,386.22,0.42,20.6,21.7,138.09,30.21,24.65,36.49,1.09,5.10,-26.54,-60,535,-928,24.7,24.7,3.1,24.5,1.5,-30.9,5.73,2.35,-28.0,28.8
2012-07-13 00:57:00,0.0,1.8937,0.0008,385.97,0.43,22.5,23.6,138.09,30.21,24.65,36.49,0.98,3.07,-26.52,-60,535,-928,24.7,24.6,3.1,24.6,1.5,-30.8,5.73,2.36,-28.0,28.8
2012-07-13 00:58:00,0.0,1.8931,0.0008,386.33,0.32,16.5,19.9,138.09,30.21,24.65,36.49,1.04,1.14,-26.51,-60,535,-928,24.7,23.4,2.4,24.5,1.5,-30.9,5.73,2.38,-28.0,28.8
2012-07-13 00:59:00,0.0,1.8929,0.0007,386.44,0.29,21.3,23.2,138.09,30.22,24.65,36.49,1.10,-0.69,-26.49,-60,535,-927,24.7,23.1,2.2,24.5,1.5,-30.9,5.73,2.36,-28.0,28.8
2012-07-13 01:00:00,0.0,1.8932,0.0012,386.58,0.29,16.9,23.3,138.09,30.22,24.65,36.49,0.99,-2.42,-26.47,-60,535,-928,24.7,23.3,2.4,24.6,1.5,-30.7,5.73,2.35,-28.0,28.9
2012-07-13 01:01:00,0.0,1.8932,0.0009,386.31,0.26,20.1,25.8,138.09,30.22,24.65,36.49,1.01,-3.35,-26.45,-60,535,-928,24.7,24.1,2.8,24.5,1.5,-30.7,5.73,2.36,-28.0,28.9
2012-07-13 01:02:00,0.0,1.8936,0.0009,385.89,0.34,23.1,22.7,138.09,30.22,24.65,36.50,1.09,-5.05,-26.44,-60,536,-927,24.7,25.0,3.3,24.5,1.5,-30.6,5.73,2.38,-28.0,28.9
2012-07-13 01:03:00,0.0,1.8933,0.0010,385.88,0.38,16.8,18.1,138.09,30.22,24.65,36.50,1.00,-6.60,-26.43,-60,535,-928,24.7,24.5,3.0,24.6,1.5,-30.7,5.73,2.37,-28.0,28.9
2012-07-13 01:04:00,0.0,1.8931,0.0009,386.14,0.31,21.6,24.1,138.09,30.22,24.65,36.49,0.98,-7.93,-26.42,-60,535,-928,24.7,24.1,2.8,24.6,1.5,-30.7,5.73,2.35,-27.9,28.9
2012-07-13 01:05:00,0.0,1.8932,0.0008,386.09,0.27,19.3,24.7,138.09,30.22,24.65,36.49,1.08,-9.23,-26.41,-60,536,-927,24.7,24.1,2.8,24.6,1.5,-30.6,5.73,2.35,-28.0,28.9
2012-07-13 01:06:00,0.0,1.8932,0.0009,386.34,0.23,20.1,22.8,138.09,30.22,24.65,36.49,1.03,-10.35,-26.41,-60,536,-928,24.7,23.9,2.7,24.6,1.5,-30.6,5.73,2.37,-27.9,28.9
2012-07-13 01:07:00,0.0,1.8937,0.0009,386.28,0.33,23.3,24.8,138.09,30.22,24.64,36.49,0.96,-11.51,-26.40,-60,536,-928,24.7,23.9,2.7,24.6,1.5,-30.6,5.73,2.37,-27.9,28.9
2012-07-13 01:08:00,0.0,1.8932,0.0008,386.23,0.29,21.4,22.2,138.09,30.22,24.65,36.49,1.03,-12.58,-26.40,-60,536,-927,24.7,23.6,2.6,24.6,1.5,-30.6,5.73,2.36,-27.9,28.8
2012-07-13 01:09:00,0.0,1.8929,0.0010,386.50,0.29,21.3,22.6,138.09,30.22,24.65,36.49,1.06,-13.58,-26.40,-60,536,-928,24.7,22.6,2.0,24.6,1.5,-30.6,5.73,2.35,-27.9,28.9
2012-07-13 01:10:00,0.0,1.8929,0.0010,386.43,0.30,27.5,23.7,138.09,30.22,24.64,36.49,0.99,-14.48,-26.40,-60,536,-928,24.7,22.7,2.0,24.6,1.5,-30.6,5.73,2.35,-27.9,28.9
2012-07-13 01:11:00,0.0,1.8922,0.0008,386.77,0.31,19.4,20.9,138.09,30.22,24.65,36.49,0.97,-15.37,-26.41,-60,536,-928,24.7,21.9,1.5,24.6,1.5,-30.6,5.73,2.37,-27.9,28.9
2012-07-13 01:12:00,0.0,1.8925,0.0008,386.88,0.32,23.1,27.3,138.09,30.22,24.65,36.49,1.03,-16.20,-26.41,-60,536,-928,24.7,22.3,1.8,24.6,1.5,-30.6,5.73,2.37,-27.9,28.9
2012-07-13 01:13:00,0.0,1.8930,0.0008,386.64,0.27,30.2,28.0,138.09,30.22,24.65,36.49,1.07,-16.99,-26.41,-60,536,-928,24.8,22.5,1.9,24.7,1.5,-30.6,5.73,2.35,-27.9,28.9
2012-07-13 01:14:00,0.0,1.8926,0.0010,386.89,0.27,23.7,26.1,138.09,30.21,24.65,36.49,0.98,-17.73,-26.42,-60,536,-928,24.8,21.7,1.4,24.6,1.5,-30.7,5.73,2.35,-27.9,28.9
2012-07-13 01:15:00,0.0,1.8926,0.0010,386.77,0.27,27.9,24.9,138.09,30.21,24.65,36.49,0.97,-18.43,-26.42,-60,536,-927,24.8,22.9,2.1,24.7,1.5,-30.8,5.73,2.37,-27.9,28.8
2012-07-13 01:16:00,0.0,1.8930,0.0009,386.30,0.27,22.5,21.1,138.09,30.21,24.65,36.49,1.04,-19.10,-26.43,-60,536,-928,24.8,23.7,2.7,24.7,1.5,-30.8,5.73,2.37,-27.9,28.9
2012-07-13 01:17:00,0.0,1.8932,0.0008,386.30,0.25,20.2,21.0,138.09,30.21,24.65,36.49,1.05,-19.75,-26.43,-60,536,-929,24.8,23.5,2.6,24.7,1.5,-30.8,5.73,2.36,-27.9,28.9
2012-07-13 01:18:00,0.0,1.8928,0.0009,386.12,0.35,19.7,22.7,138.09,30.21,24.65,36.49,0.98,-20.37,-26.44,-60,536,-928,24.8,24.3,3.0,24.7,1.5,-30.7,5.73,2.35,-27.9,28.9
2012-07-13 01:19:00,0.0,1.8928,0.0009,386.09,0.34,29.0,23.6,138.09,30.21,24.65,36.49,0.97,-20.94,-26.45,-60,536,-928,24.8,23.7,2.7,24.7,1.5,-30.8,5.73,2.35,-27.9,29.0
2012-07-13 01:20:00,0.0,1.8927,0.0010,386.37,0.38,20.3,21.5,138.09,30.21,24.65,36.49,1.03,-21.46,-26.47,-60,536,-928,24.8,23.4,2.5,24.7,1.5,-30.8,5.73,2.37,-27.9,29.0
2012-07-13 01:21:00,0.0,1.8932,0.0010,386.33,0.29,19.7,22.8,138.09,30.21,24.65,36.49,1.06,-21.95,-26.47,-60,536,-928,24.8,23.4,2.5,24.7,1.5,-30.8,5.73,2.38,-27.9,29.0
2012-07-13 01:22:00,0.0,1.8927,0.0008,386.19,0.30,23.0,25.0,138.09,30.21,24.65,36.49,0.98,-22.40,-26.48,-60,536,-928,24.8,23.5,2.5,24.7,1.5,-30.8,5.73,2.37,-27.9,28.9
2012-07-13 01:23:00,0.0,1.8925,0.0011,386.59,0.24,28.7,25.8,138.09,30.21,24.65,36.49,0.96,-22.84,-26.49,-60,536,-928,24.8,22.5,1.9,24.7,1.5,-30.8,5.73,2.35,-27.9,28.9
2012-07-13 01:24:00,0.0,1.8925,0.0008,386.47,0.28,18.6,21.6,138.09,30.21,24.65,36.49,1.03,-23.26,-26.50,-60,536,-928,24.8,23.1,2.3,24.7,1.5,-30.8,5.73,2.35,-27.9,28.9
2012-07-13 01:25:00,0.0,1.8929,0.0009,386.48,0.32,23.9,24.6,138.09,30.21,24.65,36.49,1.06,-23.66,-26.51,-60,536,-928,24.8,23.3,2.5,24.7,1.5,-30.8,5.73,2.37,-27.9,29.0
2012-07-13 01:26:00,0.0,1.8927,0.0009,386.33,0.28,24.9,22.0,138.09,30.21,24.65,36.50,1.00,-24.04,-26.52,-60,536,-929,24.8,23.3,2.4,24.7,1.5,-30.8,5.73,2.38,-27.9,29.0
2012-07-13 01:27:00,0.0,1.8930,0.0008,386.04,0.29,25.4,22.7,138.09,30.21,24.65,36.49,0.96,-24.39,-26.53,-60,536,-928,24.8,24.2,3.0,24.7,1.5,-30.8,5.73,2.36,-27.9,29.0
2012-07-13 01:28:00,0.0,1.8933,0.0009,385.62,0.34,28.5,24.1,138.09,30.21,24.65,36.50,1.01,-24.72,-26.54,-60,536,-928,24.8,25.2,3.6,24.7,1.5,-30.8,5.73,2.35,-27.9,29.0
2012-07-13 01:29:00,0.0,1.8934,0.0010,385.68,0.28,19.6,22.4,138.09,30.21,24.65,36.50,1.07,-25.03,-26.55,-60,536,-928,24.8,24.5,3.1,24.7,1.5,-30.8,5.73,2.36,-27.9,29.0
2012-07-13 01:30:00,0.0,1.8933,0.0008,385.93,0.33,26.2,23.9,138.09,30.21,24.65,36.50,1.01,-25.33,-26.56,-60,536,-928,24.8,24.4,3.1,24.7,1.5,-30.8,5.73,2.37,-27.9,29.0
2012-07-13 01:31:00,0.0,1.8938,0.0010,385.98,0.32,25.7,22.0,138.09,30.21,24.65,36.49,0.96,-25.61,-26.56,-60,536,-928,24.7,24.0,2.8,24.6,1.5,-30.8,5.73,2.37,-27.9,29.1
2012-07-13 01:32:00,0.0,1.8936,0.0009,386.31,0.29,15.5,18.9,138.09,30.21,24.65,36.49,0.98,-25.87,-26.57,-60,536,-928,24.7,23.9,2.7,24.6,1.5,-30.8,5.73,2.36,-27.8,29.1
2012-07-13 01:33:00,0.0,1.8937,0.0009,385.93,0.28,22.0,24.8,138.09,30.21,24.65,36.49,1.01,-26.12,-26.58,-60,536,-928,24.7,24.5,3.1,24.6,1.5,-31.0,5.73,2.35,-27.9,29.1
2012-07-13 01:34:00,0.0,1.8935,0.0008,385.76,0.38,26.6,24.1,138.09,30.22,24.65,36.49,1.06,-26.34,-26.59,-60,536,-928,24.7,24.9,3.3,24.6,1.5,-31.0,5.73,2.36,-27.9,29.1
2012-07-13 01:35:00,0.0,1.8943,0.0009,386.10,0.27,18.0,19.4,138.09,30.22,24.65,36.49,0.95,-26.53,-26.59,-60,536,-928,24.7,24.1,2.8,24.6,1.5,-31.0,5.73,2.37,-27.9,29.1
2012-07-13 01:36:00,0.0,1.8943,0.0010,386.28,0.25,21.5,25.2,138.09,30.22,24.65,36.49,0.96,-26.27,-26.60,-60,536,-928,24.7,23.9,2.7,24.6,1.5,-31.0,5.73,2.38,-27.9,29.1
2012-07-13 01:37:00,0.0,1.8941,0.0009,386.11,0.24,20.8,22.3,138.09,30.22,24.65,36.49,0.99,-26.34,-26.61,-60,536,-928,24.7,24.4,3.0,24.6,1.5,-31.0,5.73,2.36,-27.9,29.2
2012-07-13 01:38:00,0.0,1.8945,0.0009,385.55,0.36,20.3,22.6,138.09,30.22,24.65,36.50,1.04,-26.51,-26.62,-60,536,-928,24.7,25.6,3.7,24.6,1.5,-31.0,5.73,2.35,-28.0,29.2
2012-07-13 01:39:00,0.0,1.8936,0.0009,385.75,0.37,22.5,22.4,138.09,30.22,24.65,36.50,0.93,-26.41,-26.62,-60,536,-927,24.7,25.0,3.4,24.6,1.5,-31.0,5.73,2.36,-27.9,29.2
2012-07-13 01:40:00,0.0,1.8936,0.0009,385.86,0.28,23.6,23.9,138.09,30.23,24.65,36.49,1.04,-26.30,-26.63,-60,536,-928,24.7,25.0,3.4,24.6,1.5,-31.0,5.73,2.37,-27.9,29.2
2012-07-13 01:41:00,0.0,1.8936,0.0008,385.76,0.30,19.9,23.8,138.09,30.23,24.65,36.50,0.96,-26.46,-26.64,-60,536,-928,24.7,24.8,3.3,24.6,1.5,-31.0,5.73,2.38,-27.9,29.3
2012-07-13 01:42:00,0.0,1.8946,0.0013,385.91,0.27,29.5,24.5,138.09,30.23,24.65,36.49,0.91,-26.55,-26.64,-60,536,-928,24.7,24.5,3.1,24.6,1.5,-31.0,5.73,2.36,-27.9,29.2
2012-07-13 01:43:00,0.0,1.8945,0.0007,386.11,0.29,29.9,27.5,138.09,30.23,24.65,36.49,1.01,-26.30,-26.65,-60,536,-928,24.8,24.0,2.8,24.6,1.5,-31.0,5.73,2.35,-27.9,29.2
2012-07-13 01:44:00,0.0,1.8945,0.0010,386.22,0.30,22.0,26.7,138.09,30.23,24.65,36.49,1.05,-26.41,-26.66,-60,536,-928,24.7,24.3,3.0,24.6,1.5,-31.0,5.73,2.36,-27.9,29.2
2012-07-13 01:45:00,0.0,1.8937,0.0012,386.19,0.26,26.0,22.2,138.09,30.23,24.65,36.49,1.03,-26.59,-26.66,-60,536,-928,24.7,24.1,2.9,24.6,1.5,-31.0,5.73,2.37,-27.9,29.2
2012-07-13 01:46:00,0.0,1.8934,0.0010,386.32,0.32,22.7,24.8,138.09,30.23,24.65,36.49,0.97,-26.40,-26.67,-60,536,-928,24.7,24.2,2.9,24.6,1.5,-31.0,5.73,2.37,-27.9,29.2
2012-07-13 01:47:00,0.0,1.8931,0.0010,386.23,0.24,24.6,23.9,138.09,30.24,24.65,36.49,0.95,-26.37,-26.68,-60,536,-928,24.8,24.3,3.0,24.7,1.5,-31.0,5.73,2.37,-27.9,29.2
2012-07-13 01:48:00,0.0,1.8926,0.0009,386.43,0.29,26.5,23.4,138.09,30.24,24.65,36.49,0.98,-26.53,-26.68,-60,536,-928,24.8,23.4,2.5,24.7,1.5,-30.9,5.73,2.36,-27.9,29.3
2012-07-13 01:49:00,0.0,1.8926,0.0010,386.34,0.27,20.4,23.2,138.09,30.24,24.65,36.50,0.91,-26.60,-26.59,-60,536,-928,24.8,23.7,2.7,24.7,1.5,-30.9,5.73,2.36,-27.9,29.3
2012-07-13 01:50:00,0.0,1.8927,0.0009,386.34,0.34,27.8,26.6,138.09,30.24,24.65,36.49,0.93,-26.61,-25.37,-60,536,-928,24.8,23.6,2.6,24.7,1.5,-30.6,5.73,2.38,-27.8,29.3
2012-07-13 01:51:00,0.0,1.8925,0.0009,386.60,0.27,26.2,27.2,138.09,30.24,24.65,36.49,0.96,-26.72,-23.47,-60,536,-928,24.9,23.0,2.3,24.7,1.7,-29.4,5.73,2.37,-27.8,29.3
2012-07-13 01:52:00,0.0,1.8926,0.0008,386.86,0.29,21.0,22.4,138.09,30.24,24.65,36.49,0.93,-26.80,-21.49,-60,536,-928,24.9,23.1,2.4,24.7,1.9,-28.5,5.73,2.37,-27.8,29.3
2012-07-13 01:53:00,0.0,1.8931,0.0009,386.41,0.27,24.5,25.6,138.09,30.24,24.65,36.49,0.81,-26.84,-19.56,-60,536,-928,24.9,23.5,2.6,24.7,2.0,-28.0,5.73,2.35,-27.8,29.3
2012-07-13 01:54:00,0.0,1.8931,0.0009,386.51,0.31,21.2,25.1,138.09,30.25,24.65,36.49,0.83,-26.86,-17.72,-60,536,-928,24.9,23.6,2.7,24.8,2.0,-27.8,5.73,2.36,-27.8,29.3
2012-07-13 01:55:00,0.0,1.8932,0.0008,386.04,0.42,21.3,24.4,138.09,30.25,24.65,36.49,0.89,-26.87,-15.98,-60,536,-928,24.9,24.7,3.3,24.8,2.0,-27.9,5.73,2.38,-27.8,29.3
2012-07-13 01:56:00,0.0,1.8930,0.0009,386.12,0.33,31.7,24.9,138.09,30.25,24.65,36.50,0.94,-26.87,-14.32,-60,536,-928,24.9,24.3,3.1,24.8,1.9,-28.1,5.73,2.38,-27.8,29.3
2012-07-13 01:57:00,0.0,1.8931,0.0009,386.12,0.28,21.8,25.1,138.09,30.25,24.65,36.50,0.96,-26.86,-12.76,-60,536,-928,24.9,24.2,3.0,24.8,1.9,-28.3,5.73,2.36,-27.9,29.3
2012-07-13 01:58:00,0.0,1.8928,0.0009,386.46,0.26,20.8,20.2,138.09,30.25,24.65,36.49,0.86,-26.85,-11.27,-60,536,-928,24.9,23.3,2.5,24.8,1.9,-28.4,5.73,2.36,-27.8,29.4
2012-07-13 01:59:00,0.0,1.8929,0.0008,386.51,0.29,22.6,25.5,138.09,30.25,24.65,36.49,0.80,-26.84,-9.86,-60,536,-928,24.9,23.3,2.5,24.8,1.9,-28.6,5.73,2.36,-27.8,29.4
2012-07-13 02:00:00,0.0,1.8926,0.0008,386.54,0.31,24.3,26.8,138.09,30.25,24.65,36.50,0.89,-26.83,-8.53,-60,537,-928,24.9,23.0,2.3,24.8,1.8,-28.7,5.73,2.38,-27.8,29.3
2012-07-13 02:01:00,0.0,1.8932,0.0009,386.48,0.27,23.7,23.0,138.09,30.25,24.65,36.49,0.91,-26.82,-7.27,-60,536,-928,24.9,23.5,2.6,24.8,1.8,-28.8,5.73,2.38,-27.8,29.4
2012-07-13 02:02:00,0.0,1.8934,0.0009,386.32,0.30,24.2,27.8,138.09,30.25,24.65,36.50,0.95,-26.81,-6.06,-60,537,-928,24.9,23.6,2.7,24.8,1.8,-28.9,5.73,2.36,-27.8,29.3
2012-07-13 02:03:00,0.0,1.8930,0.0009,386.38,0.30,20.9,23.4,138.09,30.26,24.65,36.49,0.96,-26.80,-4.92,-60,536,-928,24.9,23.9,2.8,24.7,1.8,-29.1,5.73,2.35,-27.8,29.3
2012-07-13 02:04:00,0.0,1.8932,0.0010,386.08,0.31,19.0,20.5,138.09,30.26,24.64,36.49,0.92,-26.78,-3.84,-60,536,-928,24.9,23.7,2.7,24.8,1.8,-29.1,5.73,2.37,-27.8,29.3
2012-07-13 02:05:00,0.0,1.8928,0.0010,386.66,0.32,24.2,22.2,138.09,30.26,24.65,36.49,0.83,-26.77,-2.81,-60,536,-928,24.9,22.9,2.3,24.8,1.7,-29.2,5.73,2.38,-27.8,29.3
2012-07-13 02:06:00,0.0,1.8934,0.0011,386.62,0.29,21.6,24.5,138.09,30.26,24.65,36.49,0.87,-26.75,-1.83,-60,537,-928,24.9,23.1,2.4,24.8,1.7,-29.3,5.73,2.37,-27.8,29.3
2012-07-13 02:07:00,0.0,1.8925,0.0008,386.84,0.34,21.9,25.1,138.09,30.26,24.65,36.49,0.90,-26.74,-0.90,-60,536,-928,24.9,22.8,2.2,24.7,1.7,-29.4,5.73,2.36,-27.8,29.3
2012-07-13 02:08:00,0.0,1.8925,0.0010,386.49,0.31,28.6,25.9,138.09,30.26,24.65,36.50,0.92,-26.73,-0.02,-60,536,-928,24.9,22.9,2.2,24.8,1.7,-29.4,5.73,2.36,-27.7,29.3
2012-07-13 02:09:00,0.0,1.8921,0.0008,386.63,0.29,25.7,23.3,138.09,30.26,24.65,36.50,0.94,-26.72,0.82,-60,536,-928,24.9,23.0,2.3,24.8,1.7,-29.6,5.73,2.38,-27.7,29.3
2012-07-13 02:10:00,0.0,1.8921,0.0009,386.64,0.28,20.7,23.7,138.09,30.26,24.65,36.50,0.95,-26.71,1.59,-60,536,-928,24.9,22.9,2.3,24.8,1.7,-29.7,5.73,2.39,-27.7,29.3
2012-07-13 02:11:00,0.0,1.8926,0.0011,386.79,0.28,24.1,23.9,138.09,30.27,24.65,36.50,0.95,-26.70,2.32,-60,536,-928,24.9,22.4,2.0,24.8,1.7,-29.6,5.73,2.39,-27.7,29.3
2012-07-13 02:12:00,0.0,1.8918,0.0009,386.79,0.22,27.4,27.9,138.09,30.26,24.65,36.49,0.91,-26.69,2.91,-60,537,-928,24.9,22.7,2.2,24.8,1.7,-29.7,5.73,2.38,-27.7,29.4
2012-07-13 02:13:00,0.0,1.8925,0.0009,386.54,0.29,24.8,23.8,138.09,30.26,24.65,36.49,0.88,-26.67,3.21,-60,537,-928,24.9,23.3,2.6,24.8,1.6,-29.8,5.73,2.39,-27.7,29.4
2012-07-13 02:14:00,0.0,1.8929,0.0009,386.39,0.26,20.9,25.8,138.09,30.27,24.65,36.49,0.90,-26.66,3.43,-60,537,-928,24.9,23.5,2.7,24.8,1.6,-29.8,5.73,2.40,-27.7,29.4
2012-07-13 02:15:00,0.0,1.8924,0.0008,386.80,0.29,26.2,22.8,138.09,30.27,24.65,36.49,0.91,-26.65,3.82,-60,536,-928,24.9,22.6,2.1,24.8,1.6,-29.8,5.73,2.40,-27.7,29.4
2012-07-13 02:16:00,0.0,1.8928,0.0009,386.73,0.32,24.8,22.9,138.09,30.27,24.65,36.50,0.91,-26.63,4.35,-60,537,-928,24.9,22.6,2.1,24.8,1.6,-29.9,5.73,2.39,-27.7,29.4
2012-07-13 02:17:00,0.0,1.8930,0.0010,386.65,0.26,28.1,28.4,138.09,30.27,24.65,36.50,0.93,-26.63,4.96,-60,537,-928,24.9,22.9,2.3,24.8,1.6,-29.9,5.73,2.38,-27.7,29.4
2012-07-13 02:18:00,0.0,1.8931,0.0012,386.71,0.24,26.9,25.1,138.09,30.28,24.65,36.49,0.94,-26.62,5.52,-60,537,-928,24.9,22.9,2.3,24.8,1.6,-30.0,5.73,2.40,-27.7,29.4
2012-07-13 02:19:00,0.0,1.8932,0.0011,386.64,0.32,29.0,22.3,138.09,30.28,24.65,36.49,0.95,-26.61,6.06,-60,537,-928,24.9,23.3,2.5,24.8,1.6,-30.0,5.73,2.41,-27.7,29.4
2012-07-13 02:20:00,0.0,1.8935,0.0009,386.39,0.24,29.5,27.1,138.09,30.28,24.65,36.49,0.95,-26.60,6.57,-60,537,-928,24.9,23.5,2.7,24.8,1.6,-30.0,5.73,2.39,-27.7,29.4